BREEZE-KM R/B, 42970

Orbit data source: Space-Track

BREEZE-KM R/B, 42970 is space debris in SSO originally from a launch on Fri, 13 Oct 2017 UTC launched from the Plesetsk Missile And Space Complex (PKMTR). Debris objects in space refer to the collection of defunct objects orbiting the Earth. Examples of debris include non-operational satellites, rocket bodies, and fragments generated from explosions, collisions, or faulty payload assembly.

Loading next visibility...
Identifier
42970, 2017-064B
Orbit
SSO
Country
Flag of CISCIS
Related business
Manufacturer
Khrunichev
Mission
Spacecraft
Bus & Motor
BRIZ, S5.92
Mass
2,370 kg wet, 2,370 kg dry
Launch date (UTC)
2017-10-13 (9 years ago)
Launch vehicle
Unknown
Launch site
Plesetsk Missile And Space Complex (PKMTR)
Object type
Payload
Rocket body
Debris
Shape & HBR
Hex Cyl + 1 Rod, 2.0 m
Radar Cross Section
10.190 m², Large (>1 m²)

Expand to show TLE details & history
Last TLE update: 2 days ago

TLE from 2 days ago
0 BREEZE-KM R/B
1 42970U 17064B   26171.41270492  .00007281  00000-0  22081-3 0  9990
2 42970  98.7470 193.7464 0174797  11.3892 349.1216 15.20804718475370
Epoch: 2026-06-20T09:54Z
TLE epoch observation values (Epoch: 2026-06-20T09:54:17.705Z)
Latitude
0.00007°
Longitude
136.54493°
Altitude
388.388 km
Speed
7.743 km/s
True Right ascension
12h 54m 59s
True Declination
0° 00' 00"
Sunlit
Object was in daylight at epoch
Visualization orbit readout
Latitude
Unknown
Longitude
Unknown
Altitude
Unknown
Speed
Unknown
Apparent Right ascension
Unknown
Apparent Declination
Unknown
Sunlit
N/A
Visualization observer readout
Local Sidereal Time
21:27:06
Azimuth
Unknown
Elevation
Unknown
Doppler factor
Unknown
Orbital elements
Apogee altitude
620.673 km
Perigee altitude
380.202 km
Semi-major axis
6,878.575 km
Eccentricity
0.01748
Inclination
98.747°
RAAN
193.7464°
Arg. of periapsis
11.3892°
True anomaly
348.7353°
Mean anomaly
349.1216°
Eccentric anomaly
348.92929°
Mean motion
3.80448 °/min
Orbital period
94.63 mins
BSTAR
0.00022081
Loading maneuver chart data...
Computing Atmospheric mass density...
Loading historical data...
Loading historical data...
Loading historical data...
Loading historical data...
Loading historical data...
Loading historical data...
Loading historical data...
Other satellites on launch #64 in the year 2017 (2017-10-13 UTC)

Documentation

Showing up to 5 results
|